SCP
0 0 0 0 0 0 1 2 1 1 1 1 0 0 0 1 1 1 0 0 0 0 0 0 0 0 0 0 0 -0 -0 -0 -0 -0 -0 -0 -0 -0 -0 -0 -0 -0 -0
0 0 0 0 0 0 0 1 2 1 1 1 0 0 0 1 1 1 1 0 0 0 0 0 0 0 0 0 0 0 -0 -0 -0 -0 -0 -0 -0 -0 -0 -0 -0 -0 -0
0 0 0 0 0 0 0 0 0 1 1 1 1 0 0 1 1 1 1 1 0 0 0 0 0 0 0 0 0 0 -0 -0 -0 -0 -0 0 0 -0 -0 -0 -0 -0 -0
0 0 0 0 0 0 0 0 0 0 1 1 1 1 1 1 1 1 1 1 1 0 0 0 0 0 0 0 0 0 0 0 -0 -0 0 0 0 -0 -0 -0 -0 -0 -0
0 0 0 0 0 0 0 0 0 0 0 0 1 1 1 1 1 1 1 1 1 1 1 0 0 0 0 0 0 0 0 0 0 0 0 0 0 -0 -0 -0 -0 -0 -0
0 0 0 0 0 0 0 0 0 0 0 0 0 1 1 0 1 1 1 1 1 1 1 1 0 0 0 0 0 0 0 0 0 0 0 0 0 -0 -0 -0 -0 -0 -0
0 0 0 0 0 0 0 0 0 0 0 0 0 0 1 0 0 1 1 1 1 1 1 1 1 0 0 0 0 0 0 0 0 0 0 0 0 -0 -0 -0 -0 -0 -0
0 0 0 0 0 0 0 0 0 0 0 0 0 0 0 1 0 0 1 1 1 1 1 1 1 0 0 0 0 0 0 0 0 0 0 0 0 0 -0 0 -0 -0 -0
0 0 0 0 0 -0 0 0 0 0 0 0 0 0 0 0 0 0 1 1 1 1 1 1 1 1 0 0 0 0 0 0 0 0 0 0 0 0 -0 0 0 -0 -0
0 0 0 0 0 -0 -0 -0 0 0 0 0 0 0 0 0 0 0 0 1 1 1 1 1 1 1 0 0 0 0 0 0 0 0 0 0 0 0 -0 0 0 0 0
0 0 -0 -0 -0 -0 -0 -0 -0 -0 -0 0 0 0 0 0 0 0 0 0 0 1 1 1 1 1 0 0 0 0 0 0 0 0 0 0 0 0 0 0 0 0 0
0 -0 -0 -0 -0 -0 -0 -0 -0 -0 -0 -0 -0 -0 0 0 0 0 0 0 0 0 1 1 1 0 0 0 0 0 0 0 0 0 0 0 0 0 0 0 0 0 0
-0 -0 -0 -0 -0 -0 -0 -0 -0 -0 -0 -0 -0 -0 0 0 0 0 0 0 0 0 1 1 1 1 0 0 0 0 0 0 0 0 0 0 0 0 0 0 0 0 0
0 0 0 0 0 -0 -0 -0 -0 -0 -0 -0 -0 -0 -0 0 0 0 0 1 0 1 0 1 1 1 1 0 0 0 0 0 0 0 0 0 0 0 0 0 0 0 0
0 0 0 0 0 0 0 -0 -0 -0 -0 -0 0 0 0 0 0 0 0 0 0 1 0 0 0 1 1 0 0 0 0 0 0 0 0 0 0 0 0 0 0 0 0
0 0 0 -0 0 0 0 -0 -0 -0 -0 -0 0 0 0 0 0 0 0 0 0 0 0 0 0 0 1 0 0 0 0 0 0 0 0 0 0 0 0 0 0 0 0
0 0 0 0 0 0 0 0 -0 -0 -0 -0 -0 0 0 0 0 0 0 0 0 0 0 0 0 0 0 0 0 0 0 0 0 0 0 0 0 0 0 0 0 0 0
0 0 0 0 0 0 0 0 -0 -0 -0 -0 -0 0 0 0 0 0 0 0 0 0 1 0 0 0 0 0 0 0 0 0 0 0 0 0 0 0 0 0 0 0 0
0 0 0 0 0 0 0 -0 -0 -0 -0 -0 -0 -0 0 0 0 0 0 0 0 0 0 1 0 0 0 1 0 0 0 0 0 0 0 0 0 0 0 0 0 0 0
0 0 0 0 0 0 0 -0 -0 -0 -0 -0 -0 -0 0 0 0 0 0 0 0 0 0 0 0 0 0 1 0 0 0 0 0 0 0 0 0 0 0 0 0 0 0
0 0 0 0 0 0 0 -0 -0 -0 -0 -0 -0 -0 0 0 0 0 0 0 0 0 0 0 0 0 1 0 0 0 0 0 0 0 0 0 0 0 0 0 0 0 0
0 0 0 0 0 0 0 -0 -0 -0 -0 -0 -0 -0 0 0 0 0 0 0 0 0 0 0 0 0 0 0 0 0 0 0 0 0 0 0 0 0 0 0 0 0 0
-0 -0 0 0 0 0 0 -0 -0 -0 -0 -0 -0 -0 -0 0 0 0 0 0 0 0 0 0 0 0 -0 0 0 0 0 0 0 0 0 0 0 0 0 0 0 0 0
-0 -0 -0 -0 0 0 0 0 0 -0 -0 -0 -0 -0 -0 0 0 0 0 0 0 0 0 0 0 0 0 0 0 0 0 0 0 0 0 0 0 0 0 0 0 0 0
-0 -0 -0 -0 0 0 0 0 0 0 -0 -0 -0 -0 -0 0 0 0 0 0 0 0 0 0 0 0 0 0 0 0 0 0 0 0 0 0 0 0 0 0 0 0 0
-0 0 0 0 0 0 0 0 0 0 -0 -0 -0 -0 -0 -0 0 0 0 0 0 0 0 0 0 0 0 0 0 0 0 0 0 0 0 0 0 0 0 0 0 0 0
Wind_Speed_500mb
7 3 2 4 9 15 23 27 27 30 27 25 26 33 37 41 46 49 52 49 46 41 37 38 41 40 37 38 35 32 31 32 31 28 30 27 31 37 36 40 41 41 40
9 6 11 6 5 2 15 22 28 28 30 33 31 34 38 40 44 49 51 50 48 45 42 40 41 40 40 39 36 34 32 32 32 31 30 31 37 41 44 40 40 40 41
15 5 9 9 6 7 7 20 27 32 31 32 32 37 41 42 44 50 51 50 49 48 46 43 41 40 38 37 36 37 35 34 34 31 34 40 43 44 45 41 39 39 41
9 10 2 8 10 8 4 13 23 29 35 36 37 37 43 44 46 50 52 52 51 50 49 45 42 40 37 36 35 37 38 37 38 38 37 40 43 46 44 40 41 40 40
3 11 10 5 3 8 7 2 15 23 31 39 39 41 42 46 49 52 54 55 53 52 51 46 44 42 39 36 36 38 39 38 40 41 39 43 46 44 42 40 46 42 40
10 12 19 14 8 3 1 5 8 16 23 30 39 45 45 49 52 55 57 58 57 55 53 48 46 45 41 39 38 39 39 40 41 41 40 43 44 43 40 43 44 43 39
9 11 17 25 22 16 12 10 10 12 17 28 41 48 49 52 55 59 60 61 61 59 57 52 48 47 46 43 40 40 43 45 42 38 37 44 42 40 40 44 44 41 39
17 17 19 24 28 32 30 23 22 24 19 19 39 49 53 55 60 63 65 66 65 64 63 58 53 50 49 46 44 43 48 49 45 43 37 31 45 42 43 44 43 41 38
26 26 27 32 38 39 39 38 33 34 37 31 24 47 57 61 64 68 71 70 70 68 68 64 59 55 53 50 47 46 53 54 41 46 40 32 40 43 44 43 43 42 40
34 36 40 41 46 51 53 51 49 48 46 44 40 34 46 65 68 72 76 75 75 73 73 71 67 60 57 54 51 50 56 60 45 46 46 42 42 41 43 44 44 43 40
55 55 56 61 60 59 58 59 57 56 56 52 49 44 42 45 70 73 78 80 78 78 76 77 74 66 62 59 56 54 58 67 56 51 49 48 46 45 45 43 43 44 41
74 73 73 72 70 69 65 63 62 59 59 57 55 51 46 43 50 75 74 80 82 82 81 80 80 73 69 65 62 58 65 70 59 53 47 53 44 48 46 46 45 43 41
76 71 65 59 62 62 62 63 62 58 56 59 55 55 52 44 44 52 69 78 84 83 84 85 84 81 76 74 71 69 72 75 64 53 55 51 48 53 52 51 49 46 45
58 56 54 62 61 64 67 62 60 61 57 54 56 54 53 53 42 43 47 75 84 90 90 91 91 89 84 81 77 76 76 81 74 67 61 56 48 58 61 58 54 50 38
52 50 56 60 57 60 65 66 65 62 63 56 55 56 51 56 54 56 48 52 83 93 96 95 96 93 91 89 84 81 80 84 83 75 65 61 57 58 55 56 55 51 46
51 53 55 57 57 54 58 63 68 71 68 64 56 56 53 52 55 52 63 50 49 85 92 97 99 99 98 94 91 86 84 86 90 78 74 67 64 65 56 55 52 49 46
59 57 61 59 58 55 51 54 53 59 64 60 55 55 54 49 48 54 58 66 59 54 83 88 98 99 101 101 98 94 90 92 96 85 79 74 71 69 68 57 52 51 50
52 49 55 58 54 57 54 55 61 60 65 71 70 65 62 55 46 47 54 62 69 44 79 84 93 107 107 110 108 104 94 98 101 94 85 79 76 73 71 65 58 54 50
50 52 51 50 53 55 62 70 72 73 72 71 66 63 61 63 56 54 57 58 54 66 45 81 88 102 110 109 113 110 98 105 108 98 90 85 82 76 75 73 63 57 54
15 23 32 38 46 53 55 61 62 66 67 68 71 71 64 61 61 61 65 63 60 67 75 49 72 94 106 120 106 112 107 104 110 105 96 90 84 79 77 76 67 62 57
26 35 42 47 51 56 61 66 70 73 72 71 65 59 59 58 63 66 63 65 71 66 69 81 69 62 100 109 122 83 105 106 108 109 98 98 92 84 81 79 70 64 61
39 48 55 59 61 65 70 75 74 74 78 74 68 63 59 54 49 53 61 62 71 74 67 69 77 74 70 118 102 93 50 83 100 112 107 107 95 90 86 83 73 67 65
58 58 62 66 69 72 74 77 83 84 88 90 85 80 74 71 69 58 51 53 56 73 69 69 67 88 94 88 78 73 43 25 58 80 101 102 97 93 90 84 75 70 69
54 58 65 70 71 65 61 61 61 66 70 81 80 78 69 73 76 72 71 66 61 61 66 75 72 76 101 114 71 78 83 71 50 37 76 82 93 90 90 85 76 72 71
71 72 69 70 70 70 68 67 65 70 72 71 76 80 68 78 63 63 64 67 65 68 63 67 67 81 83 95 103 76 66 54 73 73 62 75 73 74 75 72 73 76 74
71 70 70 72 72 70 70 70 73 80 83 75 70 66 64 68 73 80 68 64 61 71 71 71 74 90 105 107 95 71 50 50 71 69 64 88 86 62 71 73 68 70 67
Wind_Direction_500mb
251 42 127 243 282 263 248 220 211 212 218 231 229 219 213 208 207 206 204 205 208 207 198 186 178 176 171 174 173 169 172 169 174 177 194 194 183 175 161 157 151 145 142
202 105 101 113 41 292 232 214 199 220 232 226 227 224 219 216 211 212 209 207 205 203 199 190 185 182 178 182 185 183 186 180 181 185 193 188 165 161 160 156 153 148 147
203 137 79 88 77 52 216 217 212 210 226 236 235 226 223 221 217 214 213 210 205 201 198 194 191 187 186 186 189 191 187 184 176 178 169 162 160 158 160 158 158 154 152
225 224 121 68 71 67 67 220 224 218 218 225 235 234 225 225 221 217 215 213 208 203 199 197 194 190 189 190 189 187 179 174 169 170 166 165 164 163 161 160 160 157 153
192 247 228 205 83 67 52 2 238 234 229 221 225 235 234 230 226 219 216 214 211 206 204 201 198 193 191 191 187 181 175 171 171 168 168 166 163 162 164 166 165 164 159
229 284 298 254 242 263 40 27 355 257 247 240 235 231 237 234 230 224 219 214 213 211 209 205 202 197 194 193 188 185 175 167 162 160 164 168 169 167 166 167 169 168 168
237 297 307 304 273 265 285 298 307 319 262 248 239 234 236 236 232 229 225 218 215 215 213 210 207 202 197 195 192 187 176 168 163 160 165 173 173 170 170 169 170 171 171
284 292 306 309 307 283 283 282 294 289 293 266 249 241 237 235 235 230 230 223 218 216 216 214 212 207 203 198 193 185 177 168 166 167 179 182 178 176 179 174 170 170 171
296 296 293 300 302 307 298 291 286 290 288 286 267 251 244 237 232 233 231 227 222 218 218 216 213 211 207 202 195 187 178 168 171 174 186 181 177 182 182 179 176 174 175
306 299 301 299 300 303 303 296 291 288 288 285 278 268 257 243 238 233 230 230 227 222 219 218 217 213 209 205 198 191 181 174 173 174 196 191 183 183 178 181 182 179 179
307 302 301 302 298 297 298 299 295 290 286 285 280 271 273 263 241 241 231 230 228 225 222 220 219 215 212 208 202 195 186 183 184 188 205 201 189 191 189 176 176 177 175
301 301 299 295 296 293 291 292 296 290 286 280 280 276 268 275 253 238 239 229 227 228 224 223 222 218 213 208 202 197 191 185 185 194 204 197 196 193 188 186 183 184 187
296 297 295 297 291 293 292 289 288 292 282 277 274 275 269 265 258 250 238 233 226 225 227 224 222 219 215 211 204 199 195 188 189 194 200 197 201 202 194 187 190 192 198
296 298 297 297 295 294 295 291 286 288 287 277 273 272 270 262 259 247 238 235 228 222 224 225 223 219 216 216 209 204 199 193 195 193 201 210 211 201 200 196 196 194 191
277 284 289 293 290 288 289 291 289 287 288 283 275 272 269 265 256 245 231 229 233 226 221 224 225 221 217 217 214 210 203 199 201 198 201 214 207 201 197 197 199 204 206
276 278 285 281 279 277 279 282 283 285 285 284 277 275 270 266 261 254 249 234 238 233 230 220 225 223 219 218 218 214 208 203 203 202 200 211 201 201 201 202 205 208 208
284 278 268 263 257 260 261 266 275 280 279 279 277 269 267 263 260 257 253 248 229 243 230 229 222 227 224 220 220 216 211 206 205 205 201 210 210 207 212 210 211 210 213
271 264 254 254 253 255 258 262 266 267 271 273 274 269 266 263 256 251 254 255 252 247 234 231 227 225 226 222 220 218 214 206 208 209 205 207 212 212 214 213 212 216 220
250 247 248 254 260 263 264 268 267 267 271 274 276 273 267 262 256 247 246 250 256 244 248 232 229 226 221 220 221 221 212 207 207 210 209 210 215 214 215 210 213 217 218
286 297 295 288 278 276 271 274 274 274 274 271 271 273 273 266 258 253 248 246 243 249 247 248 230 233 224 222 216 217 213 207 207 210 212 212 217 216 217 213 212 214 214
318 311 301 293 288 283 280 279 279 278 276 272 269 269 272 267 257 252 251 248 242 251 251 242 239 223 222 214 212 190 189 200 207 210 212 214 216 217 216 214 214 213 208
310 300 292 286 281 277 275 275 273 271 270 269 267 263 257 260 259 256 255 251 247 244 249 245 243 236 218 214 205 197 154 177 193 205 210 213 214 216 215 213 213 213 208
315 305 295 290 287 284 280 277 274 272 269 267 263 261 255 254 253 252 249 247 250 242 249 247 244 239 236 247 213 194 168 167 170 185 198 202 206 211 212 212 212 211 208
303 299 294 291 289 286 282 277 273 273 272 270 269 263 262 259 256 254 249 249 241 242 244 244 243 244 230 228 233 195 205 198 175 173 186 194 200 205 207 207 208 210 206
308 305 300 293 287 283 281 278 273 270 270 272 269 263 260 252 248 251 251 247 243 235 238 238 239 230 221 211 215 183 191 183 188 179 175 187 191 198 209 205 205 208 206
315 311 306 299 293 286 281 276 272 268 268 266 264 262 264 255 254 245 248 249 244 233 236 235 232 231 222 219 214 212 197 187 192 184 185 186 189 184 194 196 205 210 206
Wind_Speed_850mb
7 3 2 4 9 15 23 27 27 30 27 25 26 33 37 41 46 49 52 49 46 41 37 38 41 40 37 38 35 32 31 32 31 28 30 27 31 37 36 40 41 41 40
9 6 11 6 5 2 15 22 28 28 30 33 31 34 38 40 44 49 51 50 48 45 42 40 41 40 40 39 36 34 32 32 32 31 30 31 37 41 44 40 40 40 41
15 5 9 9 6 7 7 20 27 32 31 32 32 37 41 42 44 50 51 50 49 48 46 43 41 40 38 37 36 37 35 34 34 31 34 40 43 44 45 41 39 39 41
9 10 2 8 10 8 4 13 23 29 35 36 37 37 43 44 46 50 52 52 51 50 49 45 42 40 37 36 35 37 38 37 38 38 37 40 43 46 44 40 41 40 40
3 11 10 5 3 8 7 2 15 23 31 39 39 41 42 46 49 52 54 55 53 52 51 46 44 42 39 36 36 38 39 38 40 41 39 43 46 44 42 40 46 42 40
10 12 19 14 8 3 1 5 8 16 23 30 39 45 45 49 52 55 57 58 57 55 53 48 46 45 41 39 38 39 39 40 41 41 40 43 44 43 40 43 44 43 39
9 11 17 25 22 16 12 10 10 12 17 28 41 48 49 52 55 59 60 61 61 59 57 52 48 47 46 43 40 40 43 45 42 38 37 44 42 40 40 44 44 41 39
17 17 19 24 28 32 30 23 22 24 19 19 39 49 53 55 60 63 65 66 65 64 63 58 53 50 49 46 44 43 48 49 45 43 37 31 45 42 43 44 43 41 38
26 26 27 32 38 39 39 38 33 34 37 31 24 47 57 61 64 68 71 70 70 68 68 64 59 55 53 50 47 46 53 54 41 46 40 32 40 43 44 43 43 42 40
34 36 40 41 46 51 53 51 49 48 46 44 40 34 46 65 68 72 76 75 75 73 73 71 67 60 57 54 51 50 56 60 45 46 46 42 42 41 43 44 44 43 40
55 55 56 61 60 59 58 59 57 56 56 52 49 44 42 45 70 73 78 80 78 78 76 77 74 66 62 59 56 54 58 67 56 51 49 48 46 45 45 43 43 44 41
74 73 73 72 70 69 65 63 62 59 59 57 55 51 46 43 50 75 74 80 82 82 81 80 80 73 69 65 62 58 65 70 59 53 47 53 44 48 46 46 45 43 41
76 71 65 59 62 62 62 63 62 58 56 59 55 55 52 44 44 52 69 78 84 83 84 85 84 81 76 74 71 69 72 75 64 53 55 51 48 53 52 51 49 46 45
58 56 54 62 61 64 67 62 60 61 57 54 56 54 53 53 42 43 47 75 84 90 90 91 91 89 84 81 77 76 76 81 74 67 61 56 48 58 61 58 54 50 38
52 50 56 60 57 60 65 66 65 62 63 56 55 56 51 56 54 56 48 52 83 93 96 95 96 93 91 89 84 81 80 84 83 75 65 61 57 58 55 56 55 51 46
51 53 55 57 57 54 58 63 68 71 68 64 56 56 53 52 55 52 63 50 49 85 92 97 99 99 98 94 91 86 84 86 90 78 74 67 64 65 56 55 52 49 46
59 57 61 59 58 55 51 54 53 59 64 60 55 55 54 49 48 54 58 66 59 54 83 88 98 99 101 101 98 94 90 92 96 85 79 74 71 69 68 57 52 51 50
52 49 55 58 54 57 54 55 61 60 65 71 70 65 62 55 46 47 54 62 69 44 79 84 93 107 107 110 108 104 94 98 101 94 85 79 76 73 71 65 58 54 50
50 52 51 50 53 55 62 70 72 73 72 71 66 63 61 63 56 54 57 58 54 66 45 81 88 102 110 109 113 110 98 105 108 98 90 85 82 76 75 73 63 57 54
15 23 32 38 46 53 55 61 62 66 67 68 71 71 64 61 61 61 65 63 60 67 75 49 72 94 106 120 106 112 107 104 110 105 96 90 84 79 77 76 67 62 57
26 35 42 47 51 56 61 66 70 73 72 71 65 59 59 58 63 66 63 65 71 66 69 81 69 62 100 109 122 83 105 106 108 109 98 98 92 84 81 79 70 64 61
39 48 55 59 61 65 70 75 74 74 78 74 68 63 59 54 49 53 61 62 71 74 67 69 77 74 70 118 102 93 50 83 100 112 107 107 95 90 86 83 73 67 65
58 58 62 66 69 72 74 77 83 84 88 90 85 80 74 71 69 58 51 53 56 73 69 69 67 88 94 88 78 73 43 25 58 80 101 102 97 93 90 84 75 70 69
54 58 65 70 71 65 61 61 61 66 70 81 80 78 69 73 76 72 71 66 61 61 66 75 72 76 101 114 71 78 83 71 50 37 76 82 93 90 90 85 76 72 71
71 72 69 70 70 70 68 67 65 70 72 71 76 80 68 78 63 63 64 67 65 68 63 67 67 81 83 95 103 76 66 54 73 73 62 75 73 74 75 72 73 76 74
71 70 70 72 72 70 70 70 73 80 83 75 70 66 64 68 73 80 68 64 61 71 71 71 74 90 105 107 95 71 50 50 71 69 64 88 86 62 71 73 68 70 67
Wind_Direction_850mb
251 42 127 243 282 263 248 220 211 212 218 231 229 219 213 208 207 206 204 205 208 207 198 186 178 176 171 174 173 169 172 169 174 177 194 194 183 175 161 157 151 145 142
202 105 101 113 41 292 232 214 199 220 232 226 227 224 219 216 211 212 209 207 205 203 199 190 185 182 178 182 185 183 186 180 181 185 193 188 165 161 160 156 153 148 147
203 137 79 88 77 52 216 217 212 210 226 236 235 226 223 221 217 214 213 210 205 201 198 194 191 187 186 186 189 191 187 184 176 178 169 162 160 158 160 158 158 154 152
225 224 121 68 71 67 67 220 224 218 218 225 235 234 225 225 221 217 215 213 208 203 199 197 194 190 189 190 189 187 179 174 169 170 166 165 164 163 161 160 160 157 153
192 247 228 205 83 67 52 2 238 234 229 221 225 235 234 230 226 219 216 214 211 206 204 201 198 193 191 191 187 181 175 171 171 168 168 166 163 162 164 166 165 164 159
229 284 298 254 242 263 40 27 355 257 247 240 235 231 237 234 230 224 219 214 213 211 209 205 202 197 194 193 188 185 175 167 162 160 164 168 169 167 166 167 169 168 168
237 297 307 304 273 265 285 298 307 319 262 248 239 234 236 236 232 229 225 218 215 215 213 210 207 202 197 195 192 187 176 168 163 160 165 173 173 170 170 169 170 171 171
284 292 306 309 307 283 283 282 294 289 293 266 249 241 237 235 235 230 230 223 218 216 216 214 212 207 203 198 193 185 177 168 166 167 179 182 178 176 179 174 170 170 171
296 296 293 300 302 307 298 291 286 290 288 286 267 251 244 237 232 233 231 227 222 218 218 216 213 211 207 202 195 187 178 168 171 174 186 181 177 182 182 179 176 174 175
306 299 301 299 300 303 303 296 291 288 288 285 278 268 257 243 238 233 230 230 227 222 219 218 217 213 209 205 198 191 181 174 173 174 196 191 183 183 178 181 182 179 179
307 302 301 302 298 297 298 299 295 290 286 285 280 271 273 263 241 241 231 230 228 225 222 220 219 215 212 208 202 195 186 183 184 188 205 201 189 191 189 176 176 177 175
301 301 299 295 296 293 291 292 296 290 286 280 280 276 268 275 253 238 239 229 227 228 224 223 222 218 213 208 202 197 191 185 185 194 204 197 196 193 188 186 183 184 187
296 297 295 297 291 293 292 289 288 292 282 277 274 275 269 265 258 250 238 233 226 225 227 224 222 219 215 211 204 199 195 188 189 194 200 197 201 202 194 187 190 192 198
296 298 297 297 295 294 295 291 286 288 287 277 273 272 270 262 259 247 238 235 228 222 224 225 223 219 216 216 209 204 199 193 195 193 201 210 211 201 200 196 196 194 191
277 284 289 293 290 288 289 291 289 287 288 283 275 272 269 265 256 245 231 229 233 226 221 224 225 221 217 217 214 210 203 199 201 198 201 214 207 201 197 197 199 204 206
276 278 285 281 279 277 279 282 283 285 285 284 277 275 270 266 261 254 249 234 238 233 230 220 225 223 219 218 218 214 208 203 203 202 200 211 201 201 201 202 205 208 208
284 278 268 263 257 260 261 266 275 280 279 279 277 269 267 263 260 257 253 248 229 243 230 229 222 227 224 220 220 216 211 206 205 205 201 210 210 207 212 210 211 210 213
271 264 254 254 253 255 258 262 266 267 271 273 274 269 266 263 256 251 254 255 252 247 234 231 227 225 226 222 220 218 214 206 208 209 205 207 212 212 214 213 212 216 220
250 247 248 254 260 263 264 268 267 267 271 274 276 273 267 262 256 247 246 250 256 244 248 232 229 226 221 220 221 221 212 207 207 210 209 210 215 214 215 210 213 217 218
286 297 295 288 278 276 271 274 274 274 274 271 271 273 273 266 258 253 248 246 243 249 247 248 230 233 224 222 216 217 213 207 207 210 212 212 217 216 217 213 212 214 214
318 311 301 293 288 283 280 279 279 278 276 272 269 269 272 267 257 252 251 248 242 251 251 242 239 223 222 214 212 190 189 200 207 210 212 214 216 217 216 214 214 213 208
310 300 292 286 281 277 275 275 273 271 270 269 267 263 257 260 259 256 255 251 247 244 249 245 243 236 218 214 205 197 154 177 193 205 210 213 214 216 215 213 213 213 208
315 305 295 290 287 284 280 277 274 272 269 267 263 261 255 254 253 252 249 247 250 242 249 247 244 239 236 247 213 194 168 167 170 185 198 202 206 211 212 212 212 211 208
303 299 294 291 289 286 282 277 273 273 272 270 269 263 262 259 256 254 249 249 241 242 244 244 243 244 230 228 233 195 205 198 175 173 186 194 200 205 207 207 208 210 206
308 305 300 293 287 283 281 278 273 270 270 272 269 263 260 252 248 251 251 247 243 235 238 238 239 230 221 211 215 183 191 183 188 179 175 187 191 198 209 205 205 208 206
315 311 306 299 293 286 281 276 272 268 268 266 264 262 264 255 254 245 248 249 244 233 236 235 232 231 222 219 214 212 197 187 192 184 185 186 189 184 194 196 205 210 206